Matala Airport

Jump to: basic info | weather | runways | comments

Related pages: nearby airports | nearby navaids | notams | map

Basic information (top)

Codes: FN18
Location: lon -14.727500, lat 15.014000, elev 4,120 ft / 1,256 m msl
Status: small_airport

Weather (top)

Current conditions for Lubango Airport 84nm (156km) W (rec'd 2015/04/21 16:00Z):

FNUB 211600Z 21008KT 9999 FEW030 BKN040 21/13 Q1024 RMK VCRA

Airport forecast for Lubango Airport 84nm (156km) W (rec'd 2015/04/21 12:53Z):

TAF FNUB 211153Z 2112/2124 09010KT 9999 BKN030 FEW035TCU 
      TEMPO 2116/2120 VRB03KT 7000 -TSRA BKN020 FEW025CB 
      BECMG 2121/2124 SCT040

Runways (top)

10/28: 8,015 x 98 ft (2,443 x 30 m) — paved — not lighted

Latest comments (top)

No comments yet for Matala Airport

More... (top)

See also NOTAMs and nearby airports and navaids, or visit the Matala Airport page at the main OurAirports website..